Regional Weather Roundup
Issued by NWS Sterling, VA

Home | Current Version | Previous Version | Text Only | Print | Product List | Glossary Off
Versions: 1 2 3 4 5 6 7 8 9 10 11 12 13 14 15 16 17 18 19 20 21 22 23 24 25 26 27 28 29 30 31 32 33 34 35 36 37 38 39 40 41 42 43 44 45 46 47 48 49 50

000
ASUS41 KLWX 041310
RWRLWX

REGIONAL WEATHER ROUNDUP
NATIONAL WEATHER SERVICE BALTIMORE MD/WASHINGTON DC
800 AM EST WED MAR 04 2015

Note: "FAIR" indicates few or no clouds below 12,000 feet
with no significant weather and/or obstructions to visibility.
 TC=TEMPERATURE CELSIUS

 * =Non NWS site. Station does not report precipitation (e.g. rain,
    snow, etc.), thunder, or fog.

DCZ001-MDZ009-015-VAZ040>042-051-053>054-041400-
WASHINGTON METRO

CITY           SKY/WX    TMP DP  RH WIND       PRES   REMARKS
WASHINGTON NAT CLOUDY    42  38  85 S3        29.92R FOG
DULLES         LGT RAIN  38  36  92 CALM      29.90R FOG
ANDREWS AFB    CLOUDY    40  40  99 SW3       29.89R
FT BELVOIR     PTSUNNY   39  39 100 CALM      29.91R FOG
QUANTICO       CLOUDY    39  37  92 CALM      29.91R FOG
COLLEGE PARK*  CLOUDY    41  39  93 CALM      29.92R
LEESBURG*      CLOUDY    37  37 100 CALM      29.90R FOG
MANASSAS*      CLOUDY    37  37 100 CALM      29.89S FOG
GAITHERSBURG*  CLOUDY    36  34  93 CALM      29.93R

$$

MDZ006>007-011-014-041400-
BALTIMORE METRO

CITY           SKY/WX    TMP DP  RH WIND       PRES   REMARKS
BWI AIRPORT    CLOUDY    39  37  92 W5        29.90R FOG
MD SCIENCE CTR   N/A     40  37  89 MISG      29.91R
MARTIN STATE   CLOUDY    36  36 100 MISG      29.91R
ANNAPOLIS      CLOUDY    41  38  89 CALM      29.90R FOG
FORT MEADE*    CLOUDY    37  36  93 CALM      29.93R VSB 1

$$

MDZ012-015-019>023-041400-
MARYLAND EASTERN SHORE

CITY           SKY/WX    TMP DP  RH WIND       PRES   REMARKS
OCEAN CITY     MOSUNNY   47  45  93 W10       29.93R
SALISBURY      MOSUNNY   50  45  83 SW9       29.93R
BAY BRIDGE AP*   N/A     41  41 100 CALM      29.91R
CAMBRIDGE*     CLOUDY    45  41  87 SW5       29.92R
EASTON*        LGT RAIN  45  45 100 SW7       29.94R FOG

$$

MDZ017>025-041400-
SOUTHERN MARYLAND

CITY           SKY/WX    TMP DP  RH WIND       PRES   REMARKS
PATUXENT RIVER CLOUDY    46  43  89 CALM      29.89S
ST INIGOES     LGT RAIN  43  39  86 SE9       29.88F FOG
LEONARDTOWN*   CLOUDY    45  43  93 SW6       29.91F

$$

MDZ003>005-041400-
NORTH CENTRAL MARYLAND

CITY           SKY/WX    TMP DP  RH WIND       PRES   REMARKS
FREDERICK*     CLOUDY    37  34  87 S6        29.92R FOG
HAGERSTOWN APT CLOUDY    37  34  89 CALM      29.89R FOG
WESTMINSTER*   CLOUDY    39  37  93 SW6       29.86R FOG

$$

MDZ501>502-041400-
WESTERN MARYLAND

CITY           SKY/WX    TMP DP  RH WIND       PRES   REMARKS
OAKLAND*       CLOUDY    37 N/A N/A W12G17    29.89R HAZE
CUMBERLAND*    CLOUDY    36  36 100 CALM      29.94R VSB 1

$$

VAZ025>031-041400-
SHENANDOAH VALLEY

CITY           SKY/WX    TMP DP  RH WIND       PRES   REMARKS
WINCHESTER*    CLOUDY    45  37  76 W3        29.90R HAZE
FRONT ROYAL*   CLOUDY    41  41 100 CALM      29.88R VSB 1/2
LURAY*         CLOUDY    45  45 100 SE7       29.89R FOG
NEW MARKET*    CLOUDY    37  36  99 CALM      29.90R
STAUNTON*      FOG       43  42  96 CALM      29.92R VSB 1
WAYNESBORO*    CLOUDY    49  47  92 W7        29.90R

$$

WVZ021-048>050-054>055-041400-
EASTERN WEST VIRGINIA PANHANDLE

CITY           SKY/WX    TMP DP  RH WIND       PRES   REMARKS
MARTINSBURG    CLOUDY    38  34  85 CALM      29.91R FOG
PETERSBURG*    NOT AVBL

$$

VAZ036>039-050-041400-
CENTRAL FOOTHILLS

CITY           SKY/WX    TMP DP  RH WIND       PRES   REMARKS
CHARLOTTESVILL LGT RAIN  39  37  92 CALM      29.90R
CULPEPER*      CLOUDY    39  39 100 CALM      29.90R FOG
ORANGE*        LGT RAIN  41  41 100 CALM      29.91R
GORDONSVILLE*  CLOUDY    39  38  93 CALM      29.90R FOG
WARRENTON*     CLOUDY    40  40 100 CALM      29.89R FOG

$$

VAZ055>057-041400-
NORTH AND CENTRAL PIEDMONT

CITY           SKY/WX    TMP DP  RH WIND       PRES   REMARKS
FREDERICKSBRG* CLOUDY    47  47 100 SW5       29.89R
STAFFORD*      CLOUDY    42  32  69 CALM      29.92S FOG

$$

NCZ024-NYZ072-PAZ021-071-VAZ022-071-041400-
OTHER REGIONAL OBSERVATIONS

CITY           SKY/WX    TMP DP  RH WIND       PRES   REMARKS
NEW YORK CITY  CLOUDY    36  33  89 VRB5      29.85R FOG
PHILADELPHIA   LGT RAIN  36  34  92 SW9       29.90R FOG     WCI  29
PITTSBURGH     LGT SNOW  33  32  96 S5        29.88S
ROANOKE        CLOUDY    44  42  93 NE12      29.91F FOG
RICHMOND       CLOUDY    54  50  86 SW12      29.92R
RALEIGH        FOG       44  42  93 SW13      30.01S VSB 1/8

$$

ANZ530>537-041400-
MARINE OBSERVATIONS

STATION/POSITION TIME  TEMP    WIND        PRES
                       AIR SEA DIR/SP/G
                 (UTC) (F)     (DEG/KT/KT) (MB)
THOMAS PT LIGHT  1300   39 32  210/  2/  2 1014.0R
BALT KEY BRIDGE  1200   38     240/  4/  5 1011.6R
COVE POINT       1200   44     250/ 16/ 19 1011.6F
LEWISETTA        1200   41 34     CALM     1013.6R
SOLOMONS ISLAND  1200      33                N/A

$$



USA.gov is the U.S. government's official web portal to all federal, state and local government web resources and services.